This demonstration page uses our WeatherBlox Daily Observations layout. Learn more.

Left ArrowRight Arrow

39.51506, -84.39828

Hourly Observations for November 30, 2021

Temp ( °F °C ) Dew Point ( °F °C ) Humidity (%) Winds ( mph kmh ) Pressure ( in mb ) Visibility ( mi km ) Precip ( " mm )
12:15 am 00:15 Cloudy 40 4.4 15 -9.4 36 36 SSW 12 19 29.98 1015 10 16 0.00 0.00
12:35 am 00:35 Cloudy 40 4.2 15 -9.3 37 37 SSW 10 17 29.97 1015 10 16 0.00 0.00
12:55 am 00:55 Mostly Cloudy 39 3.7 15 -9.4 38 38 SSW 10 17 29.97 1015 10 16 0.00 0.00
1:15 am 01:15 Partly Cloudy 37 2.8 16 -9.1 42 42 SSW 9 15 29.96 1014 10 16 0.00 0.00
1:35 am 01:35 Clear 36 2.2 16 -8.9 44 44 SW 8 13 29.96 1015 10 16 0.00 0.00
1:55 am 01:55 Clear 35 1.7 16 -8.7 46 46 SSW 8 13 29.95 1014 10 16 0.00 0.00
2:15 am 02:15 Clear 34 1.1 17 -8.5 49 49 SW 7 11 29.95 1014 10 16 0.00 0.00
2:35 am 02:35 Clear 34 1.2 17 -8.4 49 49 SW 7 11 29.95 1014 10 16 0.00 0.00
2:55 am 02:55 Partly Cloudy 35 1.4 17 -8.1 50 50 SW 8 13 29.95 1014 10 16 0.00 0.00
3:15 am 03:15 Mostly Cloudy 33 0.7 19 -7 57 57 SW 6 9 29.95 1014 10 16 0.00 0.00
3:35 am 03:35 Partly Cloudy 32 0.2 19 -7.2 58 58 SW 7 11 29.94 1014 10 16 0.00 0.00
3:55 am 03:55 Clear 32 0 20 -6.6 62 62 WSW 7 11 29.95 1014 10 16 0.00 0.00
4:15 am 04:15 Clear 31 -0.3 20 -6.8 62 62 SW 7 11 29.95 1014 10 16 0.00 0.00
4:35 am 04:35 Clear 32 0 20 -6.4 62 62 WSW 8 13 29.94 1014 10 16 0.00 0.00
4:55 am 04:55 Clear 33 0.7 20 -6.4 59 59 WSW 9 15 29.93 1014 10 16 0.00 0.00
5:15 am 05:15 Clear 34 0.9 21 -6.3 59 59 WSW 10 17 29.93 1014 10 16 0.00 0.00
5:35 am 05:35 Clear 34 1 20 -6.4 58 58 WSW 8 13 29.94 1014 10 16 0.00 0.00
5:55 am 05:55 Clear 33 0.8 21 -5.9 61 61 WSW 8 13 29.95 1014 10 16 0.00 0.00
6:15 am 06:15 Clear 34 1.2 21 -5.9 60 60 WSW 9 15 29.95 1014 10 16 0.00 0.00
6:35 am 06:35 Clear 34 0.9 22 -5.6 62 62 WSW 8 13 29.96 1015 10 16 0.00 0.00
6:55 am 06:55 Clear 34 0.9 22 -5.4 63 63 WSW 8 13 29.97 1015 10 16 0.00 0.00
7:15 am 07:15 Clear 33 0.7 22 -5.8 62 62 W 5 7 29.98 1015 10 16 0.00 0.00
7:35 am 07:35 Clear 34 0.9 22 -5.8 61 61 Calm 29.99 1016 10 16 0.00 0.00
7:55 am 07:55 Sunny 33 0.5 22 -5.3 65 65 Calm 30.00 1016 10 16 0.00 0.00
8:15 am 08:15 Sunny 33 0.6 23 -4.9 67 67 SSW 3 6 30.00 1016 10 16 0.00 0.00
8:35 am 08:35 Sunny 33 0.8 23 -5.2 65 65 Calm 30.02 1017 10 16 0.00 0.00
8:55 am 08:55 Sunny 33 0.8 25 -3.9 71 71 W 3 6 30.03 1017 10 16 0.00 0.00
9:15 am 09:15 Sunny 38 3.2 26 -3.4 62 62 SW 6 9 30.03 1017 10 16 0.00 0.00
9:35 am 09:35 Sunny 40 4.5 27 -2.9 59 59 SW 8 13 30.03 1017 10 16 0.00 0.00
9:55 am 09:55 Sunny 41 5.2 28 -2.2 59 59 SW 7 11 30.05 1018 10 16 0.00 0.00
10:15 am 10:15 Sunny 44 6.4 31 -0.6 61 61 WNW 9 15 30.06 1018 10 16 0.00 0.00
10:35 am 10:35 Sunny 45 7 31 -0.4 60 60 WNW 7 11 30.07 1018 10 16 0.00 0.00
10:55 am 10:55 Sunny 46 7.5 31 -0.3 58 58 NW 9 15 30.07 1018 10 16 0.00 0.00
11:15 am 11:15 Sunny 47 8.1 31 -0.5 55 55 NW 10 17 30.06 1018 10 16 0.00 0.00
11:35 am 11:35 Sunny 46 8 31 -0.4 56 56 WNW 9 15 30.06 1018 10 16 0.00 0.00
11:55 am 11:55 Sunny 48 9 32 0 54 54 W 7 11 30.06 1018 10 16 0.00 0.00
12:15 pm 12:15 Sunny 48 8.9 32 -0.2 53 53 WNW 10 17 30.06 1018 10 16 0.00 0.00
12:35 pm 12:35 Sunny 49 9.6 32 -0.1 51 51 WSW 12 19 30.06 1018 10 16 0.00 0.00
12:55 pm 12:55 Sunny 50 10 32 -0.1 50 50 W 8 13 30.05 1018 10 16 0.00 0.00
1:15 pm 13:15 Sunny 51 10.4 32 -0.1 48 48 W 9 15 30.05 1018 10 16 0.00 0.00
1:35 pm 13:35 Sunny 52 10.9 32 0 47 47 W 14 22 30.05 1017 10 16 0.00 0.00
1:55 pm 13:55 Sunny 53 11.5 32 0.1 46 46 W 9 15 30.05 1017 10 16 0.00 0.00
2:15 pm 14:15 Sunny 53 11.5 32 0 45 45 W 10 17 30.05 1017 10 16 0.00 0.00
2:35 pm 14:35 Sunny 53 11.8 31 -0.3 44 44 W 10 17 30.04 1017 10 16 0.00 0.00
2:55 pm 14:55 Sunny 54 12 31 -0.5 42 42 W 8 13 30.04 1017 10 16 0.00 0.00
3:15 pm 15:15 Sunny 54 12 31 -0.5 42 42 W 7 11 30.04 1017 10 16 0.00 0.00
3:35 pm 15:35 Sunny 53 11.7 31 -0.8 42 42 WNW 9 15 30.05 1018 10 16 0.00 0.00
3:55 pm 15:55 Sunny 53 11.4 31 -0.8 43 43 W 10 17 30.07 1018 10 16 0.00 0.00
4:15 pm 16:15 Sunny 51 10.7 31 -0.7 46 46 WNW 8 13 30.08 1019 10 16 0.00 0.00
4:35 pm 16:35 Sunny 51 10.4 31 -0.7 46 46 W 9 15 30.09 1019 10 16 0.00 0.00
4:55 pm 16:55 Sunny 49 9.3 31 -0.7 50 50 W 8 13 30.09 1019 10 16 0.00 0.00
5:15 pm 17:15 Clear 47 8.3 31 -0.8 53 53 W 7 11 30.09 1019 10 16 0.00 0.00
5:35 pm 17:35 Clear 45 7.4 31 -0.8 56 56 W 8 13 30.10 1019 10 16 0.00 0.00
5:55 pm 17:55 Clear 44 6.6 31 -0.8 60 60 W 5 7 30.10 1019 10 16 0.00 0.00
6:15 pm 18:15 Clear 42 5.4 31 -0.8 65 65 WSW 5 7 30.10 1019 10 16 0.00 0.00
6:35 pm 18:35 Clear 39 3.9 32 -0.2 75 75 WSW 5 7 30.11 1020 10 16 0.00 0.00
6:55 pm 18:55 Clear 35 1.7 30 -0.9 83 83 WSW 7 11 30.13 1020 10 16 0.00 0.00
7:15 pm 19:15 Clear 38 3.6 32 0 78 78 WSW 7 11 30.13 1020 10 16 0.00 0.00
7:35 pm 19:35 Clear 40 4.4 32 0 73 73 WSW 6 9 30.13 1020 10 16 0.00 0.00
7:55 pm 19:55 Clear 39 3.8 32 -0.2 75 75 WSW 6 9 30.15 1021 10 16 0.00 0.00
8:15 pm 20:15 Clear 34 1.2 31 -0.7 87 87 SW 5 7 30.15 1021 10 16 0.00 0.00
8:35 pm 20:35 Clear 35 1.4 30 -1 84 84 Calm 30.15 1021 10 16 0.00 0.00
8:55 pm 20:55 Clear 34 1.1 31 -0.5 89 89 WSW 3 6 30.15 1021 10 16 0.00 0.00
9:15 pm 21:15 Clear 34 0.9 32 -0.1 93 93 Calm 30.15 1021 10 16 0.00 0.00
9:35 pm 21:35 Clear 32 0.2 31 -0.5 95 95 Calm 30.15 1021 10 16 0.00 0.00
9:55 pm 21:55 Clear 31 -0.3 30 -0.9 96 96 ENE 3 6 30.17 1022 10 16 0.00 0.00
10:15 pm 22:15 Clear 28 -2 27 -2.6 96 96 Calm 30.18 1022 10 16 0.00 0.00
10:35 pm 22:35 Clear 30 -1.2 29 -1.8 96 96 Calm 30.18 1022 10 16 0.00 0.00
10:55 pm 22:55 Clear 28 -2.3 27 -2.7 97 97 Calm 30.18 1022 7 11 0.00 0.00
11:15 pm 23:15 Clear with Mist and Fog 28 -2 28 -2.2 99 99 Calm 30.19 1022 4 6 0.00 0.00
11:35 pm 23:35 Clear 26 -3.3 26 -3.6 98 98 Calm 30.19 1022 7 11 0.00 0.00
11:55 pm 23:55 Clear with Mist and Fog 29 -1.8 28 -2 99 99 Calm 30.19 1022 2 3 0.00 0.00

Powered by AerisWeather